• In Netherlands
  • List of Countries
  • For 7 days
  • Water Temperature
  • Satellite Maps
  • Weather Map
  • Weather Widgets
  • user-avatar
    Login

    Hourly Weather A'ali

    Today, 24 May, Wednesday

    Time Temperature Precipitation Wind Pressure Humidity
    00:00 +34°C° 0 mm 3 mps 754 mmHg 29%
    01:00 +34°C° 0 mm 3 mps 754 mmHg 29%
    02:00 +34°C° 0 mm 3 mps 753 mmHg 28%
    03:00 +34°C° 0 mm 4 mps 753 mmHg 28%
    04:00 +34°C° 0 mm 4 mps 754 mmHg 29%
    05:00 +34°C° 0 mm 4 mps 754 mmHg 31%
    06:00 +34°C° 0 mm 4 mps 754 mmHg 32%
    07:00 +35°C° 0 mm 3 mps 754 mmHg 28%
    08:00 +37°C° 0 mm 3 mps 755 mmHg 24%
    09:00 +38°C° 0 mm 3 mps 755 mmHg 20%
    10:00 +40°C° 0 mm 4 mps 755 mmHg 18%
    11:00 +41°C° 0 mm 4 mps 754 mmHg 17%
    12:00 +43°C° 0 mm 4 mps 754 mmHg 15%
    13:00 +42°C° 0 mm 5 mps 754 mmHg 16%
    14:00 +42°C° 0 mm 6 mps 753 mmHg 17%
    15:00 +42°C° 0 mm 6 mps 753 mmHg 18%
    16:00 +41°C° 0 mm 6 mps 753 mmHg 21%
    17:00 +40°C° 0 mm 6 mps 753 mmHg 24%
    18:00 +39°C° 0 mm 6 mps 753 mmHg 27%
    19:00 +38°C° 0 mm 6 mps 753 mmHg 29%
    20:00 +38°C° 0 mm 6 mps 753 mmHg 32%
    21:00 +38°C° 0 mm 6 mps 754 mmHg 34%
    22:00 +36°C° 0 mm 6 mps 754 mmHg 35%
    23:00 +36°C° 0 mm 6 mps 754 mmHg 36%

    Tomorrow, 25 May, Thursday

    Time Temperature Precipitation Wind Pressure Humidity
    00:00 +36°C° 0 mm 6 mps 754 mmHg 37%
    01:00 +36°C° 0 mm 6 mps 753 mmHg 37%
    02:00 +36°C° 0 mm 6 mps 753 mmHg 36%
    03:00 +36°C° 0 mm 7 mps 753 mmHg 36%
    04:00 +36°C° 0 mm 7 mps 753 mmHg 37%
    05:00 +37°C° 0 mm 8 mps 753 mmHg 38%
    06:00 +35°C° 0 mm 9 mps 754 mmHg 39%
    07:00 +37°C° 0 mm 9 mps 754 mmHg 36%
    08:00 +38°C° 0 mm 9 mps 754 mmHg 34%
    09:00 +39°C° 0 mm 10 mps 754 mmHg 32%
    10:00 +39°C° 0 mm 10 mps 754 mmHg 31%
    11:00 +40°C° 0 mm 10 mps 754 mmHg 29%
    12:00 +40°C° 0 mm 10 mps 754 mmHg 28%
    13:00 +40°C° 0 mm 10 mps 754 mmHg 27%
    14:00 +40°C° 0 mm 10 mps 754 mmHg 27%
    15:00 +40°C° 0 mm 10 mps 754 mmHg 27%
    16:00 +39°C° 0 mm 9 mps 753 mmHg 27%
    17:00 +38°C° 0 mm 9 mps 753 mmHg 28%
    18:00 +38°C° 0 mm 9 mps 753 mmHg 29%
    19:00 +37°C° 0 mm 8 mps 753 mmHg 29%
    20:00 +37°C° 0 mm 8 mps 754 mmHg 30%
    21:00 +36°C° 0 mm 7 mps 754 mmHg 30%
    22:00 +36°C° 0 mm 7 mps 754 mmHg 31%
    23:00 +35°C° 0 mm 8 mps 753 mmHg 31%

    Day after tomorrow, 26 May, Friday

    Time Temperature Precipitation Wind Pressure Humidity
    00:00 +35°C° 0 mm 8 mps 753 mmHg 32%
    01:00 +35°C° 0 mm 8 mps 753 mmHg 34%
    02:00 +35°C° 0 mm 8 mps 753 mmHg 36%
    03:00 +34°C° 0 mm 9 mps 753 mmHg 38%
    04:00 +34°C° 0 mm 9 mps 753 mmHg 40%
    05:00 +34°C° 0 mm 8 mps 753 mmHg 42%
    06:00 +34°C° 0 mm 8 mps 754 mmHg 43%
    07:00 +35°C° 0 mm 8 mps 754 mmHg 37%
    08:00 +38°C° 0 mm 8 mps 754 mmHg 31%
    09:00 +39°C° 0 mm 7 mps 754 mmHg 25%
    10:00 +40°C° 0 mm 7 mps 754 mmHg 22%
    11:00 +41°C° 0 mm 7 mps 754 mmHg 19%
    12:00 +43°C° 0 mm 7 mps 754 mmHg 16%
    13:00 +43°C° 0 mm 7 mps 753 mmHg 15%
    14:00 +43°C° 0 mm 7 mps 752 mmHg 15%
    15:00 +44°C° 0 mm 7 mps 752 mmHg 15%
    16:00 +43°C° 0 mm 7 mps 752 mmHg 17%
    17:00 +41°C° 0 mm 7 mps 752 mmHg 18%
    18:00 +40°C° 0 mm 6 mps 752 mmHg 20%
    19:00 +39°C° 0 mm 6 mps 752 mmHg 22%
    20:00 +37°C° 0 mm 5 mps 752 mmHg 23%
    21:00 +37°C° 0 mm 5 mps 752 mmHg 25%
    22:00 +37°C° 0 mm 5 mps 752 mmHg 24%
    23:00 +37°C° 0 mm 5 mps 752 mmHg 24%

    27 May, Saturday

    Time Temperature Precipitation Wind Pressure Humidity
    00:00 +37°C° 0 mm 5 mps 752 mmHg 23%
    01:00 +37°C° 0 mm 4 mps 751 mmHg 24%
    02:00 +36°C° 0 mm 4 mps 751 mmHg 25%
    03:00 +36°C° 0 mm 4 mps 751 mmHg 26%
    04:00 +36°C° 0 mm 4 mps 751 mmHg 27%
    05:00 +36°C° 0 mm 4 mps 752 mmHg 28%
    06:00 +37°C° 0 mm 3 mps 752 mmHg 29%
    07:00 +38°C° 0 mm 4 mps 752 mmHg 26%
    08:00 +41°C° 0 mm 4 mps 753 mmHg 23%
    09:00 +42°C° 0 mm 5 mps 753 mmHg 20%
    10:00 +43°C° 0 mm 5 mps 753 mmHg 19%
    11:00 +45°C° 0 mm 5 mps 752 mmHg 17%
    12:00 +46°C° 0 mm 6 mps 752 mmHg 15%
    13:00 +46°C° 0 mm 6 mps 752 mmHg 16%
    14:00 +46°C° 0 mm 6 mps 751 mmHg 16%
    15:00 +46°C° 0 mm 6 mps 751 mmHg 16%
    16:00 +44°C° 0 mm 6 mps 751 mmHg 19%
    17:00 +42°C° 0 mm 6 mps 751 mmHg 23%
    18:00 +41°C° 0 mm 5 mps 751 mmHg 26%
    19:00 +40°C° 0 mm 5 mps 751 mmHg 28%
    20:00 +38°C° 0 mm 4 mps 751 mmHg 30%
    21:00 +38°C° 0 mm 4 mps 752 mmHg 33%
    22:00 +38°C° 0 mm 4 mps 751 mmHg 33%
    23:00 +37°C° 0 mm 4 mps 751 mmHg 33%

    28 May, Sunday

    Time Temperature Precipitation Wind Pressure Humidity
    00:00 +37°C° 0 mm 4 mps 751 mmHg 33%
    01:00 +37°C° 0 mm 4 mps 751 mmHg 34%
    02:00 +36°C° 0 mm 4 mps 751 mmHg 36%
    03:00 +36°C° 0 mm 5 mps 751 mmHg 37%
    04:00 +36°C° 0 mm 5 mps 751 mmHg 40%
    05:00 +36°C° 0 mm 6 mps 752 mmHg 43%
    06:00 +36°C° 0 mm 6 mps 752 mmHg 47%
    07:00 +38°C° 0 mm 7 mps 752 mmHg 41%
    08:00 +39°C° 0 mm 8 mps 753 mmHg 36%
    09:00 +40°C° 0 mm 8 mps 753 mmHg 30%
    10:00 +41°C° 0 mm 8 mps 753 mmHg 28%
    11:00 +43°C° 0 mm 9 mps 752 mmHg 26%
    12:00 +43°C° 0 mm 9 mps 752 mmHg 23%
    13:00 +43°C° 0 mm 9 mps 752 mmHg 24%
    14:00 +43°C° 0 mm 9 mps 751 mmHg 24%
    15:00 +42°C° 0 mm 9 mps 751 mmHg 24%
    16:00 +42°C° 0 mm 9 mps 751 mmHg 25%
    17:00 +40°C° 0 mm 8 mps 751 mmHg 27%
    18:00 +39°C° 0 mm 8 mps 751 mmHg 28%
    19:00 +39°C° 0 mm 8 mps 751 mmHg 29%
    20:00 +38°C° 0 mm 7 mps 751 mmHg 30%
    21:00 +38°C° 0 mm 7 mps 752 mmHg 30%
    22:00 +38°C° 0 mm 7 mps 751 mmHg 30%
    23:00 +38°C° 0 mm 7 mps 751 mmHg 29%

    29 May, Monday

    Time Temperature Precipitation Wind Pressure Humidity
    00:00 +38°C° 0 mm 8 mps 751 mmHg 29%
    01:00 +38°C° 0 mm 8 mps 750 mmHg 31%
    02:00 +37°C° 0 mm 8 mps 750 mmHg 33%
    03:00 +37°C° 0 mm 9 mps 750 mmHg 36%
    04:00 +37°C° 0 mm 9 mps 751 mmHg 37%
    05:00 +37°C° 0 mm 9 mps 751 mmHg 39%
    06:00 +37°C° 0 mm 9 mps 751 mmHg 41%
    07:00 +38°C° 0 mm 9 mps 752 mmHg 35%
    08:00 +40°C° 0 mm 9 mps 752 mmHg 29%
    09:00 +42°C° 0 mm 9 mps 752 mmHg 23%
    10:00 +43°C° 0 mm 9 mps 752 mmHg 21%
    11:00 +44°C° 0 mm 9 mps 751 mmHg 19%
    12:00 +45°C° 0 mm 9 mps 751 mmHg 18%
    13:00 +45°C° 0 mm 9 mps 751 mmHg 17%
    14:00 +45°C° 0 mm 9 mps 750 mmHg 17%
    15:00 +45°C° 0 mm 9 mps 750 mmHg 17%
    16:00 +44°C° 0 mm 9 mps 750 mmHg 18%
    17:00 +43°C° 0 mm 9 mps 750 mmHg 19%
    18:00 +43°C° 0 mm 8 mps 750 mmHg 20%
    19:00 +41°C° 0 mm 8 mps 750 mmHg 22%
    20:00 +41°C° 0 mm 8 mps 750 mmHg 24%
    21:00 +40°C° 0 mm 8 mps 750 mmHg 25%
    22:00 +40°C° 0 mm 8 mps 750 mmHg 27%
    23:00 +40°C° 0 mm 9 mps 750 mmHg 30%
    Show more